Kineis-5D

operational
NORAD ID: 62082 Int'l Des: 2024-219 Owner: KINEIS Country: F
LEOCIRCULARRETROGRADESSO

关于 Kineis-5D

正在加载描述...

实时位置

正在加载3D地球...

即将过境

高度历史

Altitude vs Time

uPlot chart will show altitude changes over time

两行轨道根数

1 62082U 24219B 26062.20961939 .00001722 00000-0 28013-3 0 9990
2 62082 97.9646 223.7758 0001173 74.6095 285.5242 14.72322097 68164
Epoch: Mar 3, 2026 • Age: 29 hours

当前状态

高度 663.7 km
速度 7.52 km/s
星下点 -26.52°S, 13.88°W
发射日期 Nov 25, 2024
运行时间 1.2 years
类型 other

技术详情

分类 Payload
质量 28.00 kg
干质量 28.00 kg
总质量 28.00 kg
长度 0.40 m
直径 0.20 m
跨度 1.60 m
形状 Box+ 2 pan + ant
制造商 KINEIS
平台类型 Cubesat 16U
阶段状态 In Orbit
所有者/国家 KINEIS/F

大型星座

Loading constellations...